Wahoo, NE

1:51 AM CST on February 22, 2017 (GMT -0600)
Wahoo Municipal

Weather History for KAHQ - November, 2013

Change the Weather History Date:

Wednesday, November 6, 2013

  Actual Average Record
Temperature  
Mean Temperature 36 °F -  
Max Temperature 43 °F 52 °F 78 °F (1980)
Min Temperature 30 °F 31 °F 13 °F (1993)
Degree Days  
Heating Degree Days 28    
Moisture  
Dew Point 32 °F    
Average Humidity 84    
Maximum Humidity 92    
Minimum Humidity 65    
Precipitation  
Precipitation 0.00 in - - ()
Sea Level Pressure  
Sea Level Pressure 30.20 in    
Wind  
Wind Speed 12 mph (WNW)    
Max Wind Speed 21 mph    
Max Gust Speed 28 mph    
Visibility 10 miles    
Events Snow    
Averages and records for this station are not official NWS values.
T = Trace of Precipitation, MM = Missing Value Source: NWS Daily Summary

Daily Weather History Graph

Daily Weather History Graph

Search for Another Location

Airport or City:

Trip Planner

Search our weather history database for the weather conditions in past years. The results will help you decide how hot, cold, wet, or windy it might be!

Date:

Astronomy

Nov. 06, 2013 Rise Set
Actual Time 7:03 AM CST 5:15 PM CST
Civil Twilight 6:34 AM CST 5:44 PM CST
Nautical Twilight 6:02 AM CST 6:17 PM CST
Astronomical Twilight 5:29 AM CST 6:49 PM CST
Moon 10:20 AM CST (11/6) 8:20 PM CST (11/6)
Length of Visible Light 11h 09m
Length of Day
10h 11m
Waxing Crescent, 14% of the Moon is Illuminated
Nov 6
Waxing Crescent
Nov 9
First Quarter
Nov 17
Full
Nov 25
Last Quarter
Dec 2
New

Hourly Weather History & Observations

Time (CST) Temp. Windchill Dew Point Humidity Pressure Visibility Wind Dir Wind Speed Gust Speed Precip Events Conditions
12:15 AM 34.3 °F 22.9 °F 32.4 °F 92% 30.07 in 5.0 mi NNW 20.7 mph 24.2 mph N/A Snow Light Snow
12:35 AM 34.2 °F 23.3 °F 32.2 °F 92% 30.07 in 5.0 mi NNW 18.4 mph 24.2 mph N/A Snow Light Snow
12:55 AM 34.7 °F 24.7 °F 32.2 °F 91% 30.08 in 10.0 mi NNW 16.1 mph 26.5 mph N/A   Overcast
1:15 AM 34.3 °F 23.9 °F 32.0 °F 91% 30.09 in 10.0 mi NNW 17.3 mph 27.6 mph N/A   Overcast
1:35 AM 34.3 °F 23.9 °F 32.0 °F 91% 30.09 in 10.0 mi NNW 17.3 mph 23.0 mph N/A   Overcast
1:55 AM 34.5 °F 23.4 °F 32.0 °F 90% 30.09 in 10.0 mi NNW 19.6 mph 23.0 mph N/A   Overcast
2:15 AM 34.7 °F 24.0 °F 32.0 °F 90% 30.10 in 10.0 mi NNW 18.4 mph 24.2 mph N/A   Overcast
2:35 AM 34.7 °F 24.0 °F 32.0 °F 90% 30.09 in 10.0 mi NNW 18.4 mph - N/A   Overcast
2:55 AM 34.7 °F 24.0 °F 32.0 °F 90% 30.09 in 10.0 mi North 18.4 mph 25.3 mph N/A   Overcast
3:15 AM 34.5 °F 24.5 °F 32.0 °F 90% 30.09 in 10.0 mi North 16.1 mph 20.7 mph N/A   Overcast
3:35 AM 34.2 °F 24.0 °F 31.5 °F 90% 30.10 in 10.0 mi North 16.1 mph 19.6 mph N/A   Overcast
3:55 AM 34.0 °F 26.0 °F 31.6 °F 91% 30.11 in 10.0 mi NNW 10.4 mph - N/A   Overcast
4:15 AM 34.2 °F 25.7 °F 32.0 °F 92% 30.12 in 10.0 mi NW 11.5 mph - N/A   Overcast
4:35 AM 34.3 °F 25.9 °F 31.8 °F 90% 30.12 in 10.0 mi NNW 11.5 mph 16.1 mph N/A   Overcast
4:55 AM 34.0 °F 25.5 °F 31.6 °F 91% 30.13 in 10.0 mi NNW 11.5 mph - N/A   Overcast
5:15 AM 34.5 °F 25.7 °F 32.0 °F 90% 30.14 in 10.0 mi NNW 12.7 mph 17.3 mph N/A   Overcast
5:35 AM 34.7 °F 26.4 °F 31.8 °F 89% 30.15 in 10.0 mi NNW 11.5 mph 16.1 mph N/A   Overcast
5:55 AM 34.7 °F 25.5 °F 31.8 °F 89% 30.16 in 10.0 mi NNW 13.8 mph - N/A   Overcast
6:15 AM 34.7 °F 26.9 °F 31.8 °F 89% 30.16 in 10.0 mi NNW 10.4 mph - N/A   Overcast
6:35 AM 34.7 °F 26.9 °F 31.8 °F 89% 30.16 in 10.0 mi NNW 10.4 mph - N/A   Overcast
6:55 AM 34.7 °F 27.5 °F 31.6 °F 89% 30.17 in 10.0 mi NNW 9.2 mph 17.3 mph N/A   Overcast
7:15 AM 34.7 °F 28.1 °F 31.8 °F 89% 30.18 in 10.0 mi NNW 8.1 mph - N/A   Overcast
7:35 AM 34.7 °F 28.8 °F 31.8 °F 89% 30.19 in 10.0 mi NW 6.9 mph - N/A   Overcast
7:55 AM 34.9 °F 28.3 °F 31.8 °F 89% 30.20 in 10.0 mi NNW 8.1 mph - N/A   Overcast
8:15 AM 35.1 °F 27.4 °F 32.0 °F 89% 30.21 in 10.0 mi NW 10.4 mph - N/A   Overcast
8:35 AM 35.4 °F 28.4 °F 32.0 °F 87% 30.22 in 10.0 mi NW 9.2 mph - N/A   Overcast
8:55 AM 35.6 °F 27.5 °F 32.0 °F 87% 30.23 in 10.0 mi NW 11.5 mph - N/A   Overcast
9:15 AM 35.6 °F 29.9 °F 32.0 °F 87% 30.24 in 10.0 mi WNW 6.9 mph - N/A   Overcast
9:35 AM 36.0 °F 30.3 °F 32.0 °F 86% 30.24 in 10.0 mi WNW 6.9 mph - N/A   Overcast
9:55 AM 36.5 °F 31.8 °F 32.2 °F 84% 30.24 in 10.0 mi WNW 5.8 mph - N/A   Overcast
10:15 AM 36.7 °F 30.5 °F 32.0 °F 83% 30.24 in 10.0 mi WNW 8.1 mph - N/A   Overcast
10:35 AM 37.2 °F 32.6 °F 32.2 °F 82% 30.24 in 10.0 mi West 5.8 mph - N/A   Overcast
10:55 AM 37.6 °F - 32.4 °F 81% 30.25 in 10.0 mi North - - N/A   Overcast
11:15 AM 37.8 °F 31.8 °F 32.4 °F 81% 30.25 in 10.0 mi WNW 8.1 mph - N/A   Overcast
11:35 AM 38.3 °F 33.9 °F 32.0 °F 78% 30.25 in 10.0 mi WNW 5.8 mph - N/A   Overcast
11:55 AM 39.2 °F 35.9 °F 32.5 °F 77% 30.24 in 10.0 mi NW 4.6 mph - N/A   Overcast
12:15 PM 39.9 °F 34.5 °F 33.1 °F 77% 30.23 in 10.0 mi WNW 8.1 mph - N/A   Overcast
12:35 PM 40.5 °F 37.3 °F 33.4 °F 76% 30.23 in 10.0 mi West 4.6 mph - N/A   Overcast
12:55 PM 40.6 °F 36.0 °F 33.8 °F 77% 30.23 in 10.0 mi West 6.9 mph - N/A   Overcast
1:15 PM 41.2 °F 37.3 °F 33.4 °F 74% 30.22 in 10.0 mi West 5.8 mph - N/A   Overcast
1:35 PM 41.4 °F - 32.9 °F 72% 30.22 in 10.0 mi Calm Calm - N/A   Overcast
1:55 PM 41.9 °F 40.0 °F 33.3 °F 71% 30.22 in 10.0 mi WNW 3.5 mph - N/A   Overcast
2:15 PM 41.4 °F - 32.5 °F 71% 30.22 in 10.0 mi Calm Calm - N/A   Overcast
2:35 PM 42.3 °F - 32.5 °F 68% 30.22 in 10.0 mi Calm Calm - N/A   Overcast
2:55 PM 43.0 °F 38.8 °F 32.4 °F 66% 30.22 in 10.0 mi WSW 6.9 mph - N/A   Overcast
3:15 PM 43.3 °F 39.2 °F 32.4 °F 65% 30.22 in 10.0 mi WSW 6.9 mph - N/A   Overcast
3:35 PM 42.8 °F 39.3 °F 32.7 °F 68% 30.22 in 10.0 mi WSW 5.8 mph - N/A   Overcast
3:55 PM 42.8 °F 38.0 °F 32.0 °F 66% 30.22 in 10.0 mi WSW 8.1 mph - N/A   Overcast
4:15 PM 42.4 °F 40.7 °F 32.0 °F 67% 30.22 in 10.0 mi SSW 3.5 mph - N/A   Overcast
4:35 PM 42.3 °F 37.9 °F 32.0 °F 67% 30.22 in 10.0 mi SW 6.9 mph - N/A   Overcast
4:55 PM 42.1 °F 36.6 °F 32.4 °F 68% 30.22 in 10.0 mi WSW 9.2 mph - N/A   Overcast
5:15 PM 41.0 °F 34.7 °F 32.9 °F 73% 30.23 in 10.0 mi WSW 10.4 mph - N/A   Overcast
5:35 PM 39.9 °F 33.9 °F 32.4 °F 74% 30.24 in 10.0 mi West 9.2 mph - N/A   Overcast
5:55 PM 37.4 °F 30.8 °F 32.0 °F 81% 30.24 in 10.0 mi WSW 9.2 mph - N/A   Scattered Clouds
6:15 PM 36.5 °F 29.7 °F 31.6 °F 83% 30.24 in 10.0 mi WSW 9.2 mph - N/A   Clear
6:35 PM 35.4 °F 31.5 °F 31.1 °F 84% 30.25 in 10.0 mi WSW 4.6 mph - N/A   Clear
6:55 PM 34.3 °F 30.2 °F 31.1 °F 88% 30.25 in 10.0 mi SW 4.6 mph - N/A   Clear
7:15 PM 34.3 °F 31.4 °F 30.6 °F 86% 30.25 in 10.0 mi SW 3.5 mph - N/A   Clear
7:35 PM 33.8 °F 30.8 °F 30.2 °F 87% 30.25 in 10.0 mi SSW 3.5 mph - N/A   Clear
7:55 PM 32.9 °F - 29.1 °F 86% 30.25 in 10.0 mi Calm Calm - N/A   Clear
8:15 PM 32.0 °F 27.5 °F 29.5 °F 90% 30.25 in 10.0 mi South 4.6 mph - N/A   Clear
8:35 PM 31.8 °F 28.5 °F 29.1 °F 90% 30.24 in 10.0 mi South 3.5 mph - N/A   Clear
8:55 PM 31.1 °F 27.7 °F 28.6 °F 90% 30.25 in 10.0 mi South 3.5 mph - N/A   Clear
9:15 PM 30.9 °F 26.2 °F 28.6 °F 91% 30.25 in 10.0 mi South 4.6 mph - N/A   Clear
9:35 PM 30.7 °F 27.3 °F 28.4 °F 91% 30.26 in 10.0 mi South 3.5 mph - N/A   Clear
9:55 PM 30.7 °F - 28.4 °F 91% 30.26 in 10.0 mi Calm Calm - N/A   Clear
10:15 PM 31.1 °F 27.7 °F 28.8 °F 91% 30.26 in 10.0 mi South 3.5 mph - N/A   Clear
10:35 PM 30.6 °F 27.1 °F 28.2 °F 91% 30.26 in 10.0 mi SSE 3.5 mph - N/A   Clear
10:55 PM 30.7 °F 27.3 °F 28.4 °F 91% 30.26 in 10.0 mi South 3.5 mph - N/A   Clear
11:15 PM 30.0 °F 25.2 °F 27.9 °F 92% 30.26 in 10.0 mi SSW 4.6 mph - N/A   Clear
11:35 PM 31.6 °F 27.0 °F 29.3 °F 91% 30.26 in 10.0 mi SW 4.6 mph - N/A   Clear
11:55 PM 32.0 °F 28.7 °F 29.8 °F 92% 30.25 in 10.0 mi SSW 3.5 mph - N/A   Clear